| time (UTC) | temp F | wind direction | speed knots | gust knots | rain 1hr in | rain 24hr in | rain mn in | humidity % | barometer mb |
| 20260902184516 | 74 | 189 | 11.3 | 20.9 | 0.00 | 0.00 | 0.00 | 27 | 1010.4 |
| 20260902183022 | 75 | 214 | 12.2 | 20.0 | 0.00 | 0.00 | 0.00 | 30 | 1010.7 |
| 20260902181527 | 76 | 186 | 9.6 | 21.7 | 0.00 | 0.00 | 0.00 | 32 | 1010.7 |
| 20260902180008 | 72 | 166 | 10.4 | 13.9 | 0.00 | 0.00 | 0.00 | 35 | 1011.0 |
| 20260902174511 | 72 | 196 | 7.8 | 15.6 | 0.00 | 0.00 | 0.00 | 41 | 1011.2 |
| 20260902173035 | 67 | 183 | 1.7 | 7.0 | 0.00 | 0.00 | 0.00 | 61 | 1011.4 |
| 20260902171520 | 67 | 326 | 1.7 | 2.6 | 0.00 | 0.00 | 0.00 | 59 | 1011.3 |
| 20260902170027 | 66 | 345 | 0.0 | 1.7 | 0.00 | 0.00 | 0.00 | 61 | 1011.3 |
| 20260902164510 | 65 | 298 | 0.9 | 3.5 | 0.00 | 0.00 | 0.00 | 63 | 1011.4 |
| 20260902163014 | 65 | 352 | 0.0 | 2.6 | 0.00 | 0.00 | 0.00 | 60 | 1011.3 |
| 20260902161526 | 64 | 325 | 0.9 | 2.6 | 0.00 | 0.00 | 0.00 | 66 | 1011.2 |
| 20260902160024 | 61 | 65 | 1.7 | 3.5 | 0.00 | 0.00 | 0.00 | 67 | 1011.5 |
| 20260902154531 | 60 | 342 | 0.0 | 2.6 | 0.00 | 0.00 | 0.00 | 68 | 1011.6 |
| 20260902153014 | 60 | 342 | 0.0 | 1.7 | 0.00 | 0.00 | 0.00 | 69 | 1011.7 |
| 20260902151516 | 60 | 16 | 1.7 | 2.6 | 0.00 | 0.00 | 0.00 | 68 | 1012.0 |
| 20260902150024 | 59 | 13 | 0.0 | 0.0 | 0.00 | 0.00 | 0.00 | 71 | 1012.0 |
| 20260902144529 | 58 | 178 | 0.9 | 1.7 | 0.00 | 0.00 | 0.00 | 73 | 1012.2 |
| 20260902143030 | 57 | 208 | 0.9 | 2.6 | 0.00 | 0.00 | 0.00 | 74 | 1012.4 |
| 20260902141515 | 56 | 120 | 0.0 | 0.0 | 0.00 | 0.00 | 0.00 | 80 | 1012.5 |
| 20260902140033 | 54 | 124 | 0.0 | 1.7 | 0.00 | 0.00 | 0.00 | 84 | 1012.8 |
| 20260902134526 | 52 | 122 | 1.7 | 2.6 | 0.00 | 0.00 | 0.00 | 84 | 1013.0 |
| 20260902133006 | 52 | 360 | 0.0 | 1.7 | 0.00 | 0.00 | 0.00 | 84 | 1012.9 |
| 20260902131513 | 51 | 326 | 0.0 | 1.7 | 0.00 | 0.00 | 0.00 | 84 | 1012.7 |
| 20260902130021 | 51 | 24 | 0.9 | 2.6 | 0.00 | 0.00 | 0.00 | 84 | 1012.6 |
| 20260902124507 | 52 | 62 | 0.0 | 0.0 | 0.00 | 0.00 | 0.00 | 80 | 1012.6 |
| 20260902123017 | 53 | 18 | 0.0 | 0.0 | 0.00 | 0.00 | 0.00 | 78 | 1012.7 |
| 20260902121509 | 55 | 108 | 1.7 | 2.6 | 0.00 | 0.00 | 0.00 | 72 | 1012.8 |
| 20260902120017 | 58 | 17 | 0.0 | 2.6 | 0.00 | 0.00 | 0.00 | 61 | 1012.8 |
| 20260902114526 | 60 | 75 | 0.9 | 1.7 | 0.00 | 0.00 | 0.00 | 57 | 1012.8 |
| 20260902113004 | 59 | 136 | 0.9 | 3.5 | 0.00 | 0.00 | 0.00 | 60 | 1013.0 |
| 20260902111528 | 58 | 148 | 6.1 | 7.8 | 0.00 | 0.00 | 0.00 | 64 | 1013.1 |
| 20260902110039 | 56 | 157 | 5.2 | 10.4 | 0.00 | 0.00 | 0.00 | 73 | 1013.3 |
| 20260902104527 | 56 | 137 | 1.7 | 2.6 | 0.00 | 0.00 | 0.00 | 74 | 1013.7 |
| 20260902103024 | 56 | 36 | 0.9 | 3.5 | 0.00 | 0.00 | 0.00 | 76 | 1014.2 |
| 20260902101504 | 55 | 95 | 1.7 | 1.7 | 0.00 | 0.00 | 0.00 | 79 | 1015.0 |
| 20260902100010 | 56 | 200 | 2.6 | 10.4 | 0.00 | 0.00 | 0.00 | 76 | 1015.2 |
| 20260902094515 | 57 | 234 | 0.9 | 7.8 | 0.00 | 0.00 | 0.00 | 72 | 1014.4 |
| 20260902093023 | 57 | 139 | 5.2 | 7.8 | 0.00 | 0.00 | 0.00 | 74 | 1015.1 |
| 20260902091527 | 57 | 168 | 3.5 | 6.1 | 0.00 | 0.00 | 0.00 | 76 | 1015.7 |
| 20260902090008 | 58 | 207 | 2.6 | 4.3 | 0.00 | 0.00 | 0.00 | 74 | 1015.9 |
| 20260902084515 | 58 | 63 | 1.7 | 2.6 | 0.00 | 0.00 | 0.00 | 70 | 1015.6 |
| 20260902083019 | 60 | 57 | 0.0 | 4.3 | 0.00 | 0.00 | 0.00 | 67 | 1015.8 |
| 20260902081528 | 61 | 324 | 1.7 | 7.8 | 0.00 | 0.00 | 0.00 | 60 | 1016.1 |
| 20260902080029 | 62 | 337 | 0.9 | 5.2 | 0.00 | 0.00 | 0.00 | 56 | 1015.6 |
| 20260902074512 | 62 | 360 | 0.0 | 5.2 | 0.00 | 0.00 | 0.00 | 58 | 1015.6 |
| 20260902073019 | 62 | 20 | 1.7 | 7.8 | 0.00 | 0.00 | 0.00 | 58 | 1015.6 |
| 20260902071533 | 62 | 174 | 0.9 | 8.7 | 0.00 | 0.00 | 0.00 | 55 | 1015.5 |
| 20260902070031 | 62 | 15 | 1.7 | 4.3 | 0.00 | 0.00 | 0.00 | 54 | 1015.2 |
| 20260902064532 | 61 | 59 | 0.9 | 4.3 | 0.00 | 0.00 | 0.00 | 57 | 1014.7 |
| 20260902063028 | 61 | 101 | 3.5 | 7.8 | 0.00 | 0.00 | 0.00 | 57 | 1014.5 |
| 20260902061539 | 66 | 254 | 0.9 | 5.2 | 0.00 | 0.00 | 0.00 | 46 | 1013.9 |
| 20260902060033 | 68 | 124 | 2.6 | 3.5 | 0.00 | 0.00 | 0.00 | 40 | 1013.3 |
| 20260902054543 | 69 | 99 | 1.7 | 6.1 | 0.00 | 0.00 | 0.00 | 39 | 1013.0 |
| 20260902053033 | 68 | 105 | 3.5 | 6.1 | 0.00 | 0.00 | 0.00 | 39 | 1012.9 |
| 20260902051517 | 69 | 134 | 4.3 | 12.2 | 0.00 | 0.00 | 0.00 | 39 | 1012.8 |
| 20260902050026 | 70 | 141 | 7.0 | 11.3 | 0.00 | 0.00 | 0.00 | 37 | 1013.2 |
| 20260902044529 | 70 | 163 | 6.1 | 13.0 | 0.00 | 0.00 | 0.00 | 38 | 1013.3 |
| 20260902043015 | 68 | 157 | 6.1 | 7.8 | 0.00 | 0.00 | 0.00 | 40 | 1013.1 |
| 20260902041519 | 68 | 123 | 2.6 | 4.3 | 0.00 | 0.00 | 0.00 | 43 | 1012.9 |
| 20260902040025 | 68 | 120 | 1.7 | 7.0 | 0.00 | 0.00 | 0.00 | 44 | 1013.0 |
| 20260902034505 | 69 | 100 | 5.2 | 7.8 | 0.00 | 0.00 | 0.00 | 44 | 1013.0 |
| 20260902033012 | 70 | 119 | 6.1 | 12.2 | 0.00 | 0.00 | 0.00 | 43 | 1013.0 |
| 20260902031512 | 71 | 134 | 7.0 | 14.8 | 0.00 | 0.00 | 0.00 | 41 | 1013.0 |
| 20260902030020 | 71 | 123 | 7.8 | 12.2 | 0.00 | 0.00 | 0.00 | 41 | 1012.8 |
| 20260902024505 | 70 | 110 | 6.1 | 8.7 | 0.00 | 0.00 | 0.00 | 42 | 1012.5 |
| 20260902023004 | 71 | 111 | 7.8 | 10.4 | 0.00 | 0.00 | 0.00 | 40 | 1012.5 |
| 20260902021517 | 70 | 95 | 5.2 | 7.8 | 0.00 | 0.00 | 0.00 | 42 | 1012.3 |
| 20260902020018 | 70 | 129 | 6.1 | 9.6 | 0.00 | 0.00 | 0.00 | 41 | 1012.5 |
| 20260902014531 | 71 | 131 | 6.1 | 8.7 | 0.00 | 0.00 | 0.00 | 41 | 1012.5 |
| 20260902013004 | 72 | 90 | 8.7 | 13.9 | 0.00 | 0.00 | 0.00 | 40 | 1012.1 |
| 20260902011510 | 73 | 88 | 6.1 | 9.6 | 0.00 | 0.00 | 0.00 | 39 | 1012.3 |
| 20260902010013 | 74 | 92 | 6.1 | 9.6 | 0.00 | 0.00 | 0.00 | 37 | 1012.2 |
| 20260902004526 | 75 | 136 | 2.6 | 4.3 | 0.00 | 0.00 | 0.00 | 33 | 1012.3 |
| 20260902003030 | 76 | 173 | 0.0 | 3.5 | 0.00 | 0.00 | 0.00 | 30 | 1012.5 |
| 20260902001508 | 77 | 123 | 0.9 | 7.8 | 0.00 | 0.00 | 0.00 | 26 | 1012.4 |
| 20260902000022 | 78 | 121 | 3.5 | 5.2 | 0.00 | 0.00 | 0.00 | 27 | 1012.6 |
| 20260901234517 | 79 | 312 | 0.9 | 3.5 | 0.00 | 0.00 | 0.00 | 24 | 1012.8 |
| 20260901233024 | 78 | 335 | 0.0 | 2.6 | 0.00 | 0.00 | 0.00 | 29 | 1013.0 |
| 20260901231533 | 78 | 53 | 1.7 | 2.6 | 0.00 | 0.00 | 0.00 | 27 | 1013.0 |
| 20260901230027 | 77 | 46 | 0.9 | 2.6 | 0.00 | 0.00 | 0.00 | 26 | 1013.2 |
| 20260901224520 | 77 | 85 | 0.0 | 3.5 | 0.00 | 0.00 | 0.00 | 25 | 1013.4 |
| 20260901223024 | 77 | 92 | 1.7 | 6.1 | 0.00 | 0.00 | 0.00 | 28 | 1013.5 |
| 20260901221526 | 77 | 9 | 0.9 | 2.6 | 0.00 | 0.00 | 0.00 | 27 | 1013.6 |
| 20260901220032 | 77 | 308 | 1.7 | 5.2 | 0.00 | 0.00 | 0.00 | 30 | 1013.9 |
| 20260901214512 | 77 | 251 | 3.5 | 7.8 | 0.00 | 0.00 | 0.00 | 28 | 1014.1 |
| 20260901213050 | 77 | 159 | 0.9 | 6.1 | 0.00 | 0.00 | 0.00 | 28 | 1014.2 |
| 20260901211536 | 76 | 225 | 2.6 | 7.8 | 0.00 | 0.00 | 0.00 | 33 | 1014.7 |
| 20260901210035 | 76 | 222 | 3.5 | 9.6 | 0.00 | 0.00 | 0.00 | 31 | 1014.9 |
| 20260901204531 | 75 | 218 | 3.5 | 8.7 | 0.00 | 0.00 | 0.00 | 33 | 1015.0 |
| 20260901203031 | 75 | 151 | 2.6 | 8.7 | 0.00 | 0.00 | 0.00 | 32 | 1015.2 |
| 20260901201523 | 75 | 179 | 6.1 | 9.6 | 0.00 | 0.00 | 0.00 | 32 | 1015.4 |
| 20260901200039 | 75 | 188 | 5.2 | 8.7 | 0.00 | 0.00 | 0.00 | 34 | 1015.5 |
| 20260901194530 | 73 | 128 | 3.5 | 13.0 | 0.00 | 0.00 | 0.00 | 37 | 1015.7 |
| 20260901193009 | 74 | 188 | 6.1 | 11.3 | 0.00 | 0.00 | 0.00 | 36 | 1015.9 |
| 20260901191513 | 71 | 95 | 6.1 | 8.7 | 0.00 | 0.00 | 0.00 | 37 | 1016.2 |
| 20260901190007 | 70 | 71 | 1.7 | 5.2 | 0.00 | 0.00 | 0.00 | 40 | 1016.4 |